sat.trackr.live / text

‹ back to catalog

STARLINK-34273

NORAD 64905 · 2025-157B

PAYLOAD ACTIVE UNKNOWN

§ Identity

Operator
Country
US
Launch date
2025-07-26
Launch site
AFETR
Launch vehicle
Mass (kg)
RCS (m²)

Purposes: comms

External: N2YO · Heavens-Above · Gunter

§ Orbital elements

Epoch: 2026-09-20T09:50:32.523360Z

Period
93.85 min
Inclination
53.1566°
Eccentricity
0.0001112
Mean motion
15.34408318 rev/d
Perigee alt
461.9 km
Apogee alt
463.4 km
Semi-major
6,840.8 km
B*
3.3645e-4
RAAN
157.8620°
Arg perigee
78.8843°
Mean anomaly
281.2285°
Rev number
6,599

§ Raw data

STARLINK-342731 64905U 25157B   26263.41009865  .00011011  00000+0  33645-3 0  99932 64905  53.1566 157.8620 0001112  78.8843 281.2285 15.34408318 65998

JSON: /api/v1/satellites/64905 · /tle

For live sub-satellite position, see the globe view (requires WebGL).

§ Visibility from observer

Set your observer location to see the next 7 days of passes ≥ 10°. The values pass through the URL so the page stays shareable.

No JS? Fill the form by hand. The geolocation button needs JavaScript.